Location: Unspecified
(0.0000°N, 0.0000°E)
Time: 23:39:09
(UTC+00:00)

A-11 Canister half - All Passes

Search period start: 27 May 2015 00:00
Search period end: 06 June 2015 00:00
Orbit: 1528 x 1682 km, 47.3° (Epoch: 27 May)

Date Brightness Start Highest point End Pass type
(mag) Time Alt. Az. Time Alt. Az. Time Alt. Az.
27 May - 07:17:10 10° N 07:25:29 31° NE 07:34:13 10° ESE daylight
27 May - 09:20:50 10° NW 09:30:42 59° SW 09:40:36 10° SSE daylight
27 May - 18:10:34 10° SSE 18:11:45 10° SE 18:13:50 10° SE daylight
27 May - 20:08:26 10° SSW 20:17:46 65° SE 20:26:57 10° NE visible
27 May - 22:15:25 10° W 22:22:50 25° NW 22:29:52 10° N visible
28 May - 06:55:49 10° N 07:03:52 29° NE 07:12:22 10° ESE daylight
28 May - 08:59:12 10° NW 09:09:06 63° SW 09:19:06 10° SSE daylight
28 May - 11:12:42 10° WSW 11:15:23 11° SW 11:17:05 10° SSW daylight
28 May - 19:46:56 10° SSW 19:56:13 61° SE 20:05:21 10° NE visible
28 May - 21:53:34 10° WSW 22:01:15 27° NW 22:08:34 10° N visible
29 May - 06:34:30 10° N 06:42:14 27° NE 06:50:30 10° ESE daylight
29 May - 08:37:34 10° NW 08:47:31 67° SW 08:57:35 10° SSE daylight
29 May - 10:49:47 10° WSW 10:53:41 12° SW 10:56:40 10° SSW daylight
29 May - 19:25:27 10° SSW 19:34:40 57° SE 19:43:45 10° NE visible
29 May - 21:31:46 10° WSW 21:39:40 29° NW 21:47:14 10° N visible
30 May - 06:13:12 10° N 06:20:37 25° NE 06:28:36 10° E daylight
30 May - 08:15:58 10° NW 08:25:56 71° SW 08:36:04 10° SSE daylight
30 May - 10:27:16 10° WSW 10:32:00 13° SW 10:35:52 10° SSW daylight
30 May - 19:03:59 10° SSW 19:13:08 53° SE 19:22:08 10° NE visible
30 May - 21:09:58 10° WSW 21:18:05 32° NW 21:25:54 10° N visible
31 May - 05:51:55 10° N 05:58:59 23° NE 06:06:40 10° E daylight
31 May - 07:54:22 10° NW 08:04:21 76° SW 08:14:31 10° SE daylight
31 May - 10:04:56 10° WSW 10:10:19 15° SW 10:14:55 10° SSW daylight
31 May - 18:42:31 10° SSW 18:51:34 49° SE 19:00:30 10° ENE visible
31 May - 20:48:12 10° WSW 20:56:32 34° NW 21:04:33 10° NNE visible
01 Jun - 05:30:40 10° N 05:37:21 21° NE 05:44:42 10° E visible
01 Jun - 07:32:47 10° NW 07:42:46 81° SW 07:52:57 10° SE daylight
01 Jun - 09:42:42 10° W 09:48:38 16° SW 09:53:51 10° S daylight
01 Jun - 18:21:04 10° SSW 18:30:01 46° SE 18:38:50 10° ENE visible
01 Jun - 20:26:27 10° WSW 20:34:58 37° NW 20:43:11 10° NNE visible
02 Jun - 05:09:27 10° N 05:15:43 20° NE 05:22:41 10° E visible
02 Jun - 07:11:13 10° NW 07:21:12 86° SW 07:31:23 10° SE daylight
02 Jun - 09:20:35 10° W 09:26:58 17° SW 09:32:43 10° S daylight
02 Jun - 17:59:37 10° SSW 18:08:26 43° SE 18:17:11 10° ENE daylight
02 Jun - 20:04:43 10° WSW 20:13:24 39° NW 20:21:48 10° NNE visible
03 Jun - 04:48:17 10° N 04:54:05 18° NE 05:00:37 10° E visible
03 Jun - 06:49:40 10° NW 06:59:37 90° NE 07:09:49 10° SE daylight
03 Jun - 08:58:31 10° W 09:05:18 19° SW 09:11:32 10° S daylight
03 Jun - 17:38:10 10° SSW 17:46:53 40° SE 17:55:30 10° ENE daylight
03 Jun - 19:43:00 10° WSW 19:51:50 43° NW 20:00:24 10° NNE visible
04 Jun - 04:27:10 10° N 04:32:26 16° NE 04:38:29 10° E visible
04 Jun - 06:28:08 10° NW 06:38:02 85° NE 06:48:13 10° SE daylight
04 Jun - 08:36:30 10° W 08:43:39 20° SW 08:50:18 10° S daylight
04 Jun - 17:16:45 10° SSW 17:25:18 37° SE 17:33:48 10° ENE daylight
04 Jun - 19:21:18 10° WSW 19:30:17 46° NW 19:38:59 10° NNE visible
05 Jun - 04:06:07 10° NNE 04:10:47 15° NE 04:16:17 10° ENE visible
05 Jun - 06:06:36 10° NW 06:16:28 80° NE 06:26:37 10° SE daylight
05 Jun - 08:14:33 10° W 08:21:59 22° SW 08:29:01 10° S daylight
05 Jun - 16:55:20 10° SSW 17:03:43 35° SE 17:12:05 10° ENE daylight
05 Jun - 18:59:37 10° WSW 19:08:44 49° NW 19:17:34 10° NNE visible
